Location: Bu�n Treun
(12.1333°N, 108.3167°E)
Time: 00:05:48
(UTC+00:00)

Cosmos 2297 Rocket - Pass Details

Date: 13 July 2020
Orbit: 839 x 843 km, 71.0° (Epoch: 03 August)

Event Time Altitude Azimuth Distance (km) Brightness Sun altitude
Rises 22:00:55 0° 183° (S) 3,381 5.1 -7.2°
Reaches altitude 10° 22:03:26 10° 178° (S) 2,447 4.4 -6.7°
Maximum altitude 22:08:49 48° 104° (ESE) 1,085 3.3 -5.5°
Drops below altitude 10° 22:14:11 10° 31° (NNE) 2,448 5.6 -4.3°
Sets 22:16:42 0° 26° (NNE) 3,382 6.2 -3.7°
